owner,sensor,date,latitude,longitude,sea_water_turbidity,qcFlag 
NERRS,ioos:station:NOAA.NERRS:wkbfrwq:1,2015-09-01T00:45:00Z,30.4162,-87.8228,17.0,1111122 
NERRS,ioos:station:NOAA.NERRS:wkbfrwq:1,2015-09-01T01:45:00Z,30.4162,-87.8228,18.0,1111122 
NERRS,ioos:station:NOAA.NERRS:wkbfrwq:1,2015-09-01T02:45:00Z,30.4162,-87.8228,15.0,1111122 
NERRS,ioos:station:NOAA.NERRS:wkbfrwq:1,2015-09-01T03:45:00Z,30.4162,-87.8228,18.0,1111122 
NERRS,ioos:station:NOAA.NERRS:wkbfrwq:1,2015-09-01T04:45:00Z,30.4162,-87.8228,17.0,1111122 
NERRS,ioos:station:NOAA.NERRS:wkbfrwq:1,2015-09-01T06:45:00Z,30.4162,-87.8228,16.0,1111122 
NERRS,ioos:station:NOAA.NERRS:wkbfrwq:1,2015-09-01T07:45:00Z,30.4162,-87.8228,20.0,1111122 
NERRS,ioos:station:NOAA.NERRS:wkbfrwq:1,2015-09-01T08:45:00Z,30.4162,-87.8228,18.0,1111122 
NERRS,ioos:station:NOAA.NERRS:wkbfrwq:1,2015-09-01T09:45:00Z,30.4162,-87.8228,16.0,1111122 
NERRS,ioos:station:NOAA.NERRS:wkbfrwq:1,2015-09-01T11:45:00Z,30.4162,-87.8228,14.0,1111122 
NERRS,ioos:station:NOAA.NERRS:wkbfrwq:1,2015-09-01T12:45:00Z,30.4162,-87.8228,15.0,1111122 
NERRS,ioos:station:NOAA.NERRS:wkbfrwq:1,2015-09-01T13:45:00Z,30.4162,-87.8228,16.0,1111122 
NERRS,ioos:station:NOAA.NERRS:wkbfrwq:1,2015-09-01T14:45:00Z,30.4162,-87.8228,16.0,1111122 
NERRS,ioos:station:NOAA.NERRS:wkbfrwq:1,2015-09-01T15:45:00Z,30.4162,-87.8228,16.0,1111122 
NERRS,ioos:station:NOAA.NERRS:wkbfrwq:1,2015-09-01T16:45:00Z,30.4162,-87.8228,20.0,1111122 
NERRS,ioos:station:NOAA.NERRS:wkbfrwq:1,2015-09-01T17:45:00Z,30.4162,-87.8228,19.0,1111122 
NERRS,ioos:station:NOAA.NERRS:wkbfrwq:1,2015-09-01T18:45:00Z,30.4162,-87.8228,26.0,1111122 
NERRS,ioos:station:NOAA.NERRS:wkbfrwq:1,2015-09-01T19:45:00Z,30.4162,-87.8228,19.0,1111122 
NERRS,ioos:station:NOAA.NERRS:wkbfrwq:1,2015-09-01T20:45:00Z,30.4162,-87.8228,22.0,1111122 
NERRS,ioos:station:NOAA.NERRS:wkbfrwq:1,2015-09-01T21:45:00Z,30.4162,-87.8228,20.0,1111122 
NERRS,ioos:station:NOAA.NERRS:wkbfrwq:1,2015-09-01T22:45:00Z,30.4162,-87.8228,19.0,1111122 
NERRS,ioos:station:NOAA.NERRS:wkbfrwq:1,2015-09-01T23:45:00Z,30.4162,-87.8228,20.0,1111122 
NERRS,ioos:station:NOAA.NERRS:wkbfrwq:1,2015-09-02T00:45:00Z,30.4162,-87.8228,20.0,1111122 
NERRS,ioos:station:NOAA.NERRS:wkbfrwq:1,2015-09-02T01:45:00Z,30.4162,-87.8228,23.0,1111122 
NERRS,ioos:station:NOAA.NERRS:wkbfrwq:1,2015-09-02T02:45:00Z,30.4162,-87.8228,27.0,1111122 
NERRS,ioos:station:NOAA.NERRS:wkbfrwq:1,2015-09-02T03:45:00Z,30.4162,-87.8228,21.0,1111122 
NERRS,ioos:station:NOAA.NERRS:wkbfrwq:1,2015-09-02T04:45:00Z,30.4162,-87.8228,38.0,1111122 
NERRS,ioos:station:NOAA.NERRS:wkbfrwq:1,2015-09-02T05:45:00Z,30.4162,-87.8228,22.0,1111122 
NERRS,ioos:station:NOAA.NERRS:wkbfrwq:1,2015-09-02T07:45:00Z,30.4162,-87.8228,19.0,1111122 
NERRS,ioos:station:NOAA.NERRS:wkbfrwq:1,2015-09-02T08:45:00Z,30.4162,-87.8228,18.0,1111122 
NERRS,ioos:station:NOAA.NERRS:wkbfrwq:1,2015-09-02T09:45:00Z,30.4162,-87.8228,65.0,1111122 
NERRS,ioos:station:NOAA.NERRS:wkbfrwq:1,2015-09-02T10:45:00Z,30.4162,-87.8228,17.0,1111122 
NERRS,ioos:station:NOAA.NERRS:wkbfrwq:1,2015-09-02T11:45:00Z,30.4162,-87.8228,57.0,1111122 
NERRS,ioos:station:NOAA.NERRS:wkbfrwq:1,2015-09-02T12:45:00Z,30.4162,-87.8228,30.0,1111122 
NERRS,ioos:station:NOAA.NERRS:wkbfrwq:1,2015-09-02T13:45:00Z,30.4162,-87.8228,20.0,1111122 
NERRS,ioos:station:NOAA.NERRS:wkbfrwq:1,2015-09-02T15:45:00Z,30.4162,-87.8228,15.0,1111122 
NERRS,ioos:station:NOAA.NERRS:wkbfrwq:1,2015-09-02T17:45:00Z,30.4162,-87.8228,17.0,1111122 
NERRS,ioos:station:NOAA.NERRS:wkbfrwq:1,2015-09-02T18:45:00Z,30.4162,-87.8228,16.0,1111122 
NERRS,ioos:station:NOAA.NERRS:wkbfrwq:1,2015-09-02T19:45:00Z,30.4162,-87.8228,14.0,1111122 
NERRS,ioos:station:NOAA.NERRS:wkbfrwq:1,2015-09-02T20:45:00Z,30.4162,-87.8228,19.0,1111122 
NERRS,ioos:station:NOAA.NERRS:wkbfrwq:1,2015-09-02T21:45:00Z,30.4162,-87.8228,16.0,1111122 
NERRS,ioos:station:NOAA.NERRS:wkbfrwq:1,2015-09-02T22:45:00Z,30.4162,-87.8228,19.0,1111122 
NERRS,ioos:station:NOAA.NERRS:wkbfrwq:1,2015-09-02T23:45:00Z,30.4162,-87.8228,23.0,1111122 
NERRS,ioos:station:NOAA.NERRS:wkbfrwq:1,2015-09-03T00:45:00Z,30.4162,-87.8228,20.0,1111122 
NERRS,ioos:station:NOAA.NERRS:wkbfrwq:1,2015-09-03T01:45:00Z,30.4162,-87.8228,17.0,1111122 
NERRS,ioos:station:NOAA.NERRS:wkbfrwq:1,2015-09-03T02:45:00Z,30.4162,-87.8228,16.0,1111122 
NERRS,ioos:station:NOAA.NERRS:wkbfrwq:1,2015-09-03T03:45:00Z,30.4162,-87.8228,17.0,1111122 
NERRS,ioos:station:NOAA.NERRS:wkbfrwq:1,2015-09-03T04:45:00Z,30.4162,-87.8228,17.0,1111122 
NERRS,ioos:station:NOAA.NERRS:wkbfrwq:1,2015-09-03T05:45:00Z,30.4162,-87.8228,16.0,1111122 
NERRS,ioos:station:NOAA.NERRS:wkbfrwq:1,2015-09-03T07:45:00Z,30.4162,-87.8228,18.0,1111122 
NERRS,ioos:station:NOAA.NERRS:wkbfrwq:1,2015-09-03T08:45:00Z,30.4162,-87.8228,14.0,1111122 
NERRS,ioos:station:NOAA.NERRS:wkbfrwq:1,2015-09-03T09:45:00Z,30.4162,-87.8228,15.0,1111122 
NERRS,ioos:station:NOAA.NERRS:wkbfrwq:1,2015-09-03T10:45:00Z,30.4162,-87.8228,13.0,1111122 
NERRS,ioos:station:NOAA.NERRS:wkbfrwq:1,2015-09-03T11:45:00Z,30.4162,-87.8228,13.0,1111122 
NERRS,ioos:station:NOAA.NERRS:wkbfrwq:1,2015-09-03T12:45:00Z,30.4162,-87.8228,12.0,1111122 
NERRS,ioos:station:NOAA.NERRS:wkbfrwq:1,2015-09-03T14:45:00Z,30.4162,-87.8228,13.0,1111122 
NERRS,ioos:station:NOAA.NERRS:wkbfrwq:1,2015-09-03T15:45:00Z,30.4162,-87.8228,18.0,1111122 
NERRS,ioos:station:NOAA.NERRS:wkbfrwq:1,2015-09-03T17:45:00Z,30.4162,-87.8228,19.0,1111122 
NERRS,ioos:station:NOAA.NERRS:wkbfrwq:1,2015-09-03T18:45:00Z,30.4162,-87.8228,16.0,1111122 
NERRS,ioos:station:NOAA.NERRS:wkbfrwq:1,2015-09-03T19:45:00Z,30.4162,-87.8228,15.0,1111122 
NERRS,ioos:station:NOAA.NERRS:wkbfrwq:1,2015-09-03T20:45:00Z,30.4162,-87.8228,16.0,1111122 
NERRS,ioos:station:NOAA.NERRS:wkbfrwq:1,2015-09-03T22:45:00Z,30.4162,-87.8228,19.0,1111122 
NERRS,ioos:station:NOAA.NERRS:wkbfrwq:1,2015-09-03T23:45:00Z,30.4162,-87.8228,18.0,1111122 
NERRS,ioos:station:NOAA.NERRS:wkbfrwq:1,2015-09-04T00:45:00Z,30.4162,-87.8228,19.0,1111122 
NERRS,ioos:station:NOAA.NERRS:wkbfrwq:1,2015-09-04T01:45:00Z,30.4162,-87.8228,16.0,1111122 
NERRS,ioos:station:NOAA.NERRS:wkbfrwq:1,2015-09-04T03:45:00Z,30.4162,-87.8228,16.0,1111122 
NERRS,ioos:station:NOAA.NERRS:wkbfrwq:1,2015-09-04T05:45:00Z,30.4162,-87.8228,17.0,1111122 
NERRS,ioos:station:NOAA.NERRS:wkbfrwq:1,2015-09-04T07:45:00Z,30.4162,-87.8228,17.0,1111122 
NERRS,ioos:station:NOAA.NERRS:wkbfrwq:1,2015-09-04T08:45:00Z,30.4162,-87.8228,16.0,1111122 
NERRS,ioos:station:NOAA.NERRS:wkbfrwq:1,2015-09-04T09:45:00Z,30.4162,-87.8228,17.0,1111122 
NERRS,ioos:station:NOAA.NERRS:wkbfrwq:1,2015-09-04T10:45:00Z,30.4162,-87.8228,17.0,1111122 
NERRS,ioos:station:NOAA.NERRS:wkbfrwq:1,2015-09-04T11:45:00Z,30.4162,-87.8228,13.0,1111122 
NERRS,ioos:station:NOAA.NERRS:wkbfrwq:1,2015-09-04T12:45:00Z,30.4162,-87.8228,13.0,1111122 
NERRS,ioos:station:NOAA.NERRS:wkbfrwq:1,2015-09-04T13:45:00Z,30.4162,-87.8228,13.0,1111122 
NERRS,ioos:station:NOAA.NERRS:wkbfrwq:1,2015-09-04T14:45:00Z,30.4162,-87.8228,13.0,1111122 
NERRS,ioos:station:NOAA.NERRS:wkbfrwq:1,2015-09-04T15:45:00Z,30.4162,-87.8228,12.0,1111122 
NERRS,ioos:station:NOAA.NERRS:wkbfrwq:1,2015-09-04T16:45:00Z,30.4162,-87.8228,12.0,1111122 
NERRS,ioos:station:NOAA.NERRS:wkbfrwq:1,2015-09-04T17:45:00Z,30.4162,-87.8228,12.0,1111122 
NERRS,ioos:station:NOAA.NERRS:wkbfrwq:1,2015-09-04T18:45:00Z,30.4162,-87.8228,13.0,1111122 
NERRS,ioos:station:NOAA.NERRS:wkbfrwq:1,2015-09-04T19:45:00Z,30.4162,-87.8228,15.0,1111122 
NERRS,ioos:station:NOAA.NERRS:wkbfrwq:1,2015-09-04T20:45:00Z,30.4162,-87.8228,13.0,1111122 
NERRS,ioos:station:NOAA.NERRS:wkbfrwq:1,2015-09-04T22:45:00Z,30.4162,-87.8228,12.0,1111122 
NERRS,ioos:station:NOAA.NERRS:wkbfrwq:1,2015-09-05T00:45:00Z,30.4162,-87.8228,19.0,1111122 
NERRS,ioos:station:NOAA.NERRS:wkbfrwq:1,2015-09-05T02:45:00Z,30.4162,-87.8228,17.0,1111122 
NERRS,ioos:station:NOAA.NERRS:wkbfrwq:1,2015-09-05T04:45:00Z,30.4162,-87.8228,17.0,1111122 
NERRS,ioos:station:NOAA.NERRS:wkbfrwq:1,2015-09-05T05:45:00Z,30.4162,-87.8228,16.0,1111122 
NERRS,ioos:station:NOAA.NERRS:wkbfrwq:1,2015-09-05T07:45:00Z,30.4162,-87.8228,19.0,1111122 
NERRS,ioos:station:NOAA.NERRS:wkbfrwq:1,2015-09-05T08:45:00Z,30.4162,-87.8228,18.0,1111122 
NERRS,ioos:station:NOAA.NERRS:wkbfrwq:1,2015-09-05T09:45:00Z,30.4162,-87.8228,15.0,1111122 
NERRS,ioos:station:NOAA.NERRS:wkbfrwq:1,2015-09-05T10:45:00Z,30.4162,-87.8228,14.0,1111122 
NERRS,ioos:station:NOAA.NERRS:wkbfrwq:1,2015-09-05T11:45:00Z,30.4162,-87.8228,16.0,1111122 
NERRS,ioos:station:NOAA.NERRS:wkbfrwq:1,2015-09-05T12:45:00Z,30.4162,-87.8228,15.0,1111122 
NERRS,ioos:station:NOAA.NERRS:wkbfrwq:1,2015-09-05T13:45:00Z,30.4162,-87.8228,13.0,1111122 
NERRS,ioos:station:NOAA.NERRS:wkbfrwq:1,2015-09-05T14:45:00Z,30.4162,-87.8228,13.0,1111122 
NERRS,ioos:station:NOAA.NERRS:wkbfrwq:1,2015-09-05T15:45:00Z,30.4162,-87.8228,13.0,1111122 
NERRS,ioos:station:NOAA.NERRS:wkbfrwq:1,2015-09-05T16:45:00Z,30.4162,-87.8228,17.0,1111122 
NERRS,ioos:station:NOAA.NERRS:wkbfrwq:1,2015-09-05T17:45:00Z,30.4162,-87.8228,21.0,1111122 
NERRS,ioos:station:NOAA.NERRS:wkbfrwq:1,2015-09-05T18:45:00Z,30.4162,-87.8228,19.0,1111122 
NERRS,ioos:station:NOAA.NERRS:wkbfrwq:1,2015-09-05T19:45:00Z,30.4162,-87.8228,17.0,1111122 
NERRS,ioos:station:NOAA.NERRS:wkbfrwq:1,2015-09-05T20:45:00Z,30.4162,-87.8228,20.0,1111122 
NERRS,ioos:station:NOAA.NERRS:wkbfrwq:1,2015-09-05T21:45:00Z,30.4162,-87.8228,15.0,1111122 
NERRS,ioos:station:NOAA.NERRS:wkbfrwq:1,2015-09-05T22:45:00Z,30.4162,-87.8228,20.0,1111122 
NERRS,ioos:station:NOAA.NERRS:wkbfrwq:1,2015-09-05T23:45:00Z,30.4162,-87.8228,22.0,1111122 
NERRS,ioos:station:NOAA.NERRS:wkbfrwq:1,2015-09-06T00:45:00Z,30.4162,-87.8228,24.0,1111122 
NERRS,ioos:station:NOAA.NERRS:wkbfrwq:1,2015-09-06T01:45:00Z,30.4162,-87.8228,27.0,1111122 
NERRS,ioos:station:NOAA.NERRS:wkbfrwq:1,2015-09-06T02:45:00Z,30.4162,-87.8228,28.0,1111122 
NERRS,ioos:station:NOAA.NERRS:wkbfrwq:1,2015-09-06T04:45:00Z,30.4162,-87.8228,24.0,1111122 
NERRS,ioos:station:NOAA.NERRS:wkbfrwq:1,2015-09-06T05:45:00Z,30.4162,-87.8228,25.0,1111122 
NERRS,ioos:station:NOAA.NERRS:wkbfrwq:1,2015-09-06T07:45:00Z,30.4162,-87.8228,27.0,1111122 
NERRS,ioos:station:NOAA.NERRS:wkbfrwq:1,2015-09-06T08:45:00Z,30.4162,-87.8228,24.0,1111122 
NERRS,ioos:station:NOAA.NERRS:wkbfrwq:1,2015-09-06T09:45:00Z,30.4162,-87.8228,21.0,1111122 
NERRS,ioos:station:NOAA.NERRS:wkbfrwq:1,2015-09-06T10:45:00Z,30.4162,-87.8228,23.0,1111122 
NERRS,ioos:station:NOAA.NERRS:wkbfrwq:1,2015-09-06T11:45:00Z,30.4162,-87.8228,32.0,1111122 
NERRS,ioos:station:NOAA.NERRS:wkbfrwq:1,2015-09-06T12:45:00Z,30.4162,-87.8228,22.0,1111122 
NERRS,ioos:station:NOAA.NERRS:wkbfrwq:1,2015-09-06T13:45:00Z,30.4162,-87.8228,42.0,1111122 
NERRS,ioos:station:NOAA.NERRS:wkbfrwq:1,2015-09-06T14:45:00Z,30.4162,-87.8228,34.0,1111122 
NERRS,ioos:station:NOAA.NERRS:wkbfrwq:1,2015-09-06T15:45:00Z,30.4162,-87.8228,66.0,1111122 
NERRS,ioos:station:NOAA.NERRS:wkbfrwq:1,2015-09-06T16:45:00Z,30.4162,-87.8228,97.0,1111122 
NERRS,ioos:station:NOAA.NERRS:wkbfrwq:1,2015-09-06T17:45:00Z,30.4162,-87.8228,77.0,1111122 
NERRS,ioos:station:NOAA.NERRS:wkbfrwq:1,2015-09-06T18:45:00Z,30.4162,-87.8228,74.0,1111122 
NERRS,ioos:station:NOAA.NERRS:wkbfrwq:1,2015-09-06T19:45:00Z,30.4162,-87.8228,152.0,1111122 
NERRS,ioos:station:NOAA.NERRS:wkbfrwq:1,2015-09-06T20:45:00Z,30.4162,-87.8228,120.0,1111122 
NERRS,ioos:station:NOAA.NERRS:wkbfrwq:1,2015-09-06T21:45:00Z,30.4162,-87.8228,121.0,1111122 
NERRS,ioos:station:NOAA.NERRS:wkbfrwq:1,2015-09-06T22:45:00Z,30.4162,-87.8228,51.0,1111122 
NERRS,ioos:station:NOAA.NERRS:wkbfrwq:1,2015-09-06T23:45:00Z,30.4162,-87.8228,84.0,1111122 
NERRS,ioos:station:NOAA.NERRS:wkbfrwq:1,2015-09-07T00:45:00Z,30.4162,-87.8228,110.0,1111122 
NERRS,ioos:station:NOAA.NERRS:wkbfrwq:1,2015-09-07T01:45:00Z,30.4162,-87.8228,31.0,1111122 
NERRS,ioos:station:NOAA.NERRS:wkbfrwq:1,2015-09-07T02:45:00Z,30.4162,-87.8228,71.0,1111122 
NERRS,ioos:station:NOAA.NERRS:wkbfrwq:1,2015-09-07T03:45:00Z,30.4162,-87.8228,85.0,1111122 
NERRS,ioos:station:NOAA.NERRS:wkbfrwq:1,2015-09-07T04:45:00Z,30.4162,-87.8228,92.0,1111122 
NERRS,ioos:station:NOAA.NERRS:wkbfrwq:1,2015-09-07T05:45:00Z,30.4162,-87.8228,89.0,1111122 
NERRS,ioos:station:NOAA.NERRS:wkbfrwq:1,2015-09-07T07:45:00Z,30.4162,-87.8228,40.0,1111122 
NERRS,ioos:station:NOAA.NERRS:wkbfrwq:1,2015-09-07T08:45:00Z,30.4162,-87.8228,67.0,1111122 
NERRS,ioos:station:NOAA.NERRS:wkbfrwq:1,2015-09-07T09:45:00Z,30.4162,-87.8228,72.0,1111122 
NERRS,ioos:station:NOAA.NERRS:wkbfrwq:1,2015-09-07T10:45:00Z,30.4162,-87.8228,65.0,1111122 
NERRS,ioos:station:NOAA.NERRS:wkbfrwq:1,2015-09-07T11:45:00Z,30.4162,-87.8228,84.0,1111122 
NERRS,ioos:station:NOAA.NERRS:wkbfrwq:1,2015-09-07T12:45:00Z,30.4162,-87.8228,79.0,1111122 
NERRS,ioos:station:NOAA.NERRS:wkbfrwq:1,2015-09-07T13:45:00Z,30.4162,-87.8228,128.0,1111122 
NERRS,ioos:station:NOAA.NERRS:wkbfrwq:1,2015-09-07T14:45:00Z,30.4162,-87.8228,160.0,1111122 
NERRS,ioos:station:NOAA.NERRS:wkbfrwq:1,2015-09-07T15:45:00Z,30.4162,-87.8228,93.0,1111122 
NERRS,ioos:station:NOAA.NERRS:wkbfrwq:1,2015-09-07T16:45:00Z,30.4162,-87.8228,139.0,1111122 
NERRS,ioos:station:NOAA.NERRS:wkbfrwq:1,2015-09-07T17:45:00Z,30.4162,-87.8228,156.0,1111122 
NERRS,ioos:station:NOAA.NERRS:wkbfrwq:1,2015-09-07T18:45:00Z,30.4162,-87.8228,77.0,1111122 
NERRS,ioos:station:NOAA.NERRS:wkbfrwq:1,2015-09-07T19:45:00Z,30.4162,-87.8228,204.0,1111122 
NERRS,ioos:station:NOAA.NERRS:wkbfrwq:1,2015-09-07T20:45:00Z,30.4162,-87.8228,103.0,1111122 
NERRS,ioos:station:NOAA.NERRS:wkbfrwq:1,2015-09-07T22:45:00Z,30.4162,-87.8228,388.0,1111122 
NERRS,ioos:station:NOAA.NERRS:wkbfrwq:1,2015-09-07T23:45:00Z,30.4162,-87.8228,177.0,1111122 
NERRS,ioos:station:NOAA.NERRS:wkbfrwq:1,2015-09-08T00:45:00Z,30.4162,-87.8228,111.0,1111122 
NERRS,ioos:station:NOAA.NERRS:wkbfrwq:1,2015-09-08T01:45:00Z,30.4162,-87.8228,106.0,1111122 
NERRS,ioos:station:NOAA.NERRS:wkbfrwq:1,2015-09-08T02:45:00Z,30.4162,-87.8228,137.0,1111122 
NERRS,ioos:station:NOAA.NERRS:wkbfrwq:1,2015-09-08T03:45:00Z,30.4162,-87.8228,116.0,1111122 
NERRS,ioos:station:NOAA.NERRS:wkbfrwq:1,2015-09-08T04:45:00Z,30.4162,-87.8228,138.0,1111122 
NERRS,ioos:station:NOAA.NERRS:wkbfrwq:1,2015-09-08T05:45:00Z,30.4162,-87.8228,170.0,1111122 
NERRS,ioos:station:NOAA.NERRS:wkbfrwq:1,2015-09-08T07:45:00Z,30.4162,-87.8228,104.0,1111122 
NERRS,ioos:station:NOAA.NERRS:wkbfrwq:1,2015-09-08T08:45:00Z,30.4162,-87.8228,229.0,1111122 
NERRS,ioos:station:NOAA.NERRS:wkbfrwq:1,2015-09-08T09:45:00Z,30.4162,-87.8228,301.0,1111122 
NERRS,ioos:station:NOAA.NERRS:wkbfrwq:1,2015-09-08T10:45:00Z,30.4162,-87.8228,227.0,1111122 
NERRS,ioos:station:NOAA.NERRS:wkbfrwq:1,2015-09-08T11:45:00Z,30.4162,-87.8228,157.0,1111122 
NERRS,ioos:station:NOAA.NERRS:wkbfrwq:1,2015-09-08T12:45:00Z,30.4162,-87.8228,211.0,1111122 
NERRS,ioos:station:NOAA.NERRS:wkbfrwq:1,2015-09-08T13:45:00Z,30.4162,-87.8228,210.0,1111122 
NERRS,ioos:station:NOAA.NERRS:wkbfrwq:1,2015-09-08T14:45:00Z,30.4162,-87.8228,193.0,1111122 
NERRS,ioos:station:NOAA.NERRS:wkbfrwq:1,2015-09-08T15:45:00Z,30.4162,-87.8228,396.0,1111122 
NERRS,ioos:station:NOAA.NERRS:wkbfrwq:1,2015-09-08T16:45:00Z,30.4162,-87.8228,228.0,1111122 
NERRS,ioos:station:NOAA.NERRS:wkbfrwq:1,2015-09-08T18:45:00Z,30.4162,-87.8228,522.0,1111122 
NERRS,ioos:station:NOAA.NERRS:wkbfrwq:1,2015-09-08T19:45:00Z,30.4162,-87.8228,697.0,1111122 
NERRS,ioos:station:NOAA.NERRS:wkbfrwq:1,2015-09-08T20:45:00Z,30.4162,-87.8228,631.0,1111122 
NERRS,ioos:station:NOAA.NERRS:wkbfrwq:1,2015-09-08T22:45:00Z,30.4162,-87.8228,628.0,1111122 
NERRS,ioos:station:NOAA.NERRS:wkbfrwq:1,2015-09-08T23:45:00Z,30.4162,-87.8228,315.0,1111122 
NERRS,ioos:station:NOAA.NERRS:wkbfrwq:1,2015-09-09T00:45:00Z,30.4162,-87.8228,440.0,1111122 
NERRS,ioos:station:NOAA.NERRS:wkbfrwq:1,2015-09-09T01:45:00Z,30.4162,-87.8228,381.0,1111122 
NERRS,ioos:station:NOAA.NERRS:wkbfrwq:1,2015-09-09T02:45:00Z,30.4162,-87.8228,311.0,1111122 
NERRS,ioos:station:NOAA.NERRS:wkbfrwq:1,2015-09-09T03:45:00Z,30.4162,-87.8228,357.0,1111122 
NERRS,ioos:station:NOAA.NERRS:wkbfrwq:1,2015-09-09T04:45:00Z,30.4162,-87.8228,521.0,1111122 
NERRS,ioos:station:NOAA.NERRS:wkbfrwq:1,2015-09-09T05:45:00Z,30.4162,-87.8228,476.0,1111122 
NERRS,ioos:station:NOAA.NERRS:wkbfrwq:1,2015-09-09T07:45:00Z,30.4162,-87.8228,506.0,1111122 
NERRS,ioos:station:NOAA.NERRS:wkbfrwq:1,2015-09-09T08:45:00Z,30.4162,-87.8228,431.0,1111122 
NERRS,ioos:station:NOAA.NERRS:wkbfrwq:1,2015-09-09T09:45:00Z,30.4162,-87.8228,621.0,1111122 
NERRS,ioos:station:NOAA.NERRS:wkbfrwq:1,2015-09-09T10:45:00Z,30.4162,-87.8228,528.0,1111122 
NERRS,ioos:station:NOAA.NERRS:wkbfrwq:1,2015-09-09T11:45:00Z,30.4162,-87.8228,567.0,1111122 
NERRS,ioos:station:NOAA.NERRS:wkbfrwq:1,2015-09-09T12:45:00Z,30.4162,-87.8228,604.0,1111122 
NERRS,ioos:station:NOAA.NERRS:wkbfrwq:1,2015-09-09T13:45:00Z,30.4162,-87.8228,564.0,1111122 
NERRS,ioos:station:NOAA.NERRS:wkbfrwq:1,2015-09-09T14:45:00Z,30.4162,-87.8228,451.0,1111122 
NERRS,ioos:station:NOAA.NERRS:wkbfrwq:1,2015-09-09T15:45:00Z,30.4162,-87.8228,462.0,1111122 
NERRS,ioos:station:NOAA.NERRS:wkbfrwq:1,2015-09-09T16:45:00Z,30.4162,-87.8228,540.0,1111122 
NERRS,ioos:station:NOAA.NERRS:wkbfrwq:1,2015-09-09T17:45:00Z,30.4162,-87.8228,977.0,1111122 
NERRS,ioos:station:NOAA.NERRS:wkbfrwq:1,2015-09-09T18:45:00Z,30.4162,-87.8228,666.0,1111122 
NERRS,ioos:station:NOAA.NERRS:wkbfrwq:1,2015-09-09T19:45:00Z,30.4162,-87.8228,1245.0,1111122 
NERRS,ioos:station:NOAA.NERRS:wkbfrwq:1,2015-09-09T20:45:00Z,30.4162,-87.8228,945.0,1111122 
NERRS,ioos:station:NOAA.NERRS:wkbfrwq:1,2015-09-09T22:45:00Z,30.4162,-87.8228,829.0,1111122 
NERRS,ioos:station:NOAA.NERRS:wkbfrwq:1,2015-09-09T23:45:00Z,30.4162,-87.8228,905.0,1111122 
NERRS,ioos:station:NOAA.NERRS:wkbfrwq:1,2015-09-10T00:45:00Z,30.4162,-87.8228,826.0,1111122 
NERRS,ioos:station:NOAA.NERRS:wkbfrwq:1,2015-09-10T01:45:00Z,30.4162,-87.8228,854.0,1111122 
NERRS,ioos:station:NOAA.NERRS:wkbfrwq:1,2015-09-10T02:45:00Z,30.4162,-87.8228,803.0,1111122 
NERRS,ioos:station:NOAA.NERRS:wkbfrwq:1,2015-09-10T03:45:00Z,30.4162,-87.8228,784.0,1111122 
NERRS,ioos:station:NOAA.NERRS:wkbfrwq:1,2015-09-10T04:45:00Z,30.4162,-87.8228,879.0,1111122 
NERRS,ioos:station:NOAA.NERRS:wkbfrwq:1,2015-09-10T05:45:00Z,30.4162,-87.8228,827.0,1111122 
NERRS,ioos:station:NOAA.NERRS:wkbfrwq:1,2015-09-10T07:45:00Z,30.4162,-87.8228,863.0,1111122 
NERRS,ioos:station:NOAA.NERRS:wkbfrwq:1,2015-09-10T08:45:00Z,30.4162,-87.8228,933.0,1111122 
NERRS,ioos:station:NOAA.NERRS:wkbfrwq:1,2015-09-10T09:45:00Z,30.4162,-87.8228,780.0,1111122 
NERRS,ioos:station:NOAA.NERRS:wkbfrwq:1,2015-09-10T10:45:00Z,30.4162,-87.8228,813.0,1111122 
NERRS,ioos:station:NOAA.NERRS:wkbfrwq:1,2015-09-10T11:45:00Z,30.4162,-87.8228,801.0,1111122 
NERRS,ioos:station:NOAA.NERRS:wkbfrwq:1,2015-09-10T12:45:00Z,30.4162,-87.8228,859.0,1111122 
NERRS,ioos:station:NOAA.NERRS:wkbfrwq:1,2015-09-10T13:45:00Z,30.4162,-87.8228,812.0,1111122 
NERRS,ioos:station:NOAA.NERRS:wkbfrwq:1,2015-09-10T14:45:00Z,30.4162,-87.8228,698.0,1111122 
NERRS,ioos:station:NOAA.NERRS:wkbfrwq:1,2015-09-10T15:45:00Z,30.4162,-87.8228,774.0,1111122 
NERRS,ioos:station:NOAA.NERRS:wkbfrwq:1,2015-09-10T16:45:00Z,30.4162,-87.8228,794.0,1111122 
NERRS,ioos:station:NOAA.NERRS:wkbfrwq:1,2015-09-10T17:45:00Z,30.4162,-87.8228,729.0,1111122 
NERRS,ioos:station:NOAA.NERRS:wkbfrwq:1,2015-09-10T18:45:00Z,30.4162,-87.8228,740.0,1111122 
NERRS,ioos:station:NOAA.NERRS:wkbfrwq:1,2015-09-10T19:45:00Z,30.4162,-87.8228,574.0,1111122 
NERRS,ioos:station:NOAA.NERRS:wkbfrwq:1,2015-09-10T20:45:00Z,30.4162,-87.8228,483.0,1111122 
NERRS,ioos:station:NOAA.NERRS:wkbfrwq:1,2015-09-10T22:45:00Z,30.4162,-87.8228,506.0,1111122 
NERRS,ioos:station:NOAA.NERRS:wkbfrwq:1,2015-09-10T23:45:00Z,30.4162,-87.8228,487.0,1111122 
NERRS,ioos:station:NOAA.NERRS:wkbfrwq:1,2015-09-11T00:45:00Z,30.4162,-87.8228,453.0,1111122 
NERRS,ioos:station:NOAA.NERRS:wkbfrwq:1,2015-09-11T01:45:00Z,30.4162,-87.8228,432.0,1111122 
NERRS,ioos:station:NOAA.NERRS:wkbfrwq:1,2015-09-11T02:45:00Z,30.4162,-87.8228,489.0,1111122 
NERRS,ioos:station:NOAA.NERRS:wkbfrwq:1,2015-09-11T03:45:00Z,30.4162,-87.8228,469.0,1111122 
NERRS,ioos:station:NOAA.NERRS:wkbfrwq:1,2015-09-11T04:45:00Z,30.4162,-87.8228,480.0,1111122 
NERRS,ioos:station:NOAA.NERRS:wkbfrwq:1,2015-09-11T05:45:00Z,30.4162,-87.8228,472.0,1111122 
NERRS,ioos:station:NOAA.NERRS:wkbfrwq:1,2015-09-11T07:45:00Z,30.4162,-87.8228,452.0,1111122 
NERRS,ioos:station:NOAA.NERRS:wkbfrwq:1,2015-09-11T08:45:00Z,30.4162,-87.8228,458.0,1111122 
NERRS,ioos:station:NOAA.NERRS:wkbfrwq:1,2015-09-11T09:45:00Z,30.4162,-87.8228,438.0,1111122 
NERRS,ioos:station:NOAA.NERRS:wkbfrwq:1,2015-09-11T10:45:00Z,30.4162,-87.8228,430.0,1111122 
NERRS,ioos:station:NOAA.NERRS:wkbfrwq:1,2015-09-11T11:45:00Z,30.4162,-87.8228,542.0,1111122 
NERRS,ioos:station:NOAA.NERRS:wkbfrwq:1,2015-09-11T12:45:00Z,30.4162,-87.8228,529.0,1111122 
NERRS,ioos:station:NOAA.NERRS:wkbfrwq:1,2015-09-11T14:45:00Z,30.4162,-87.8228,414.0,1111122 
NERRS,ioos:station:NOAA.NERRS:wkbfrwq:1,2015-09-11T15:45:00Z,30.4162,-87.8228,317.0,1111122 
NERRS,ioos:station:NOAA.NERRS:wkbfrwq:1,2015-09-11T16:45:00Z,30.4162,-87.8228,523.0,1111122 
NERRS,ioos:station:NOAA.NERRS:wkbfrwq:1,2015-09-11T17:45:00Z,30.4162,-87.8228,371.0,1111122 
NERRS,ioos:station:NOAA.NERRS:wkbfrwq:1,2015-09-11T18:45:00Z,30.4162,-87.8228,409.0,1111122 
NERRS,ioos:station:NOAA.NERRS:wkbfrwq:1,2015-09-11T19:45:00Z,30.4162,-87.8228,59.0,1111122 
NERRS,ioos:station:NOAA.NERRS:wkbfrwq:1,2015-09-11T20:45:00Z,30.4162,-87.8228,34.0,1111122 
NERRS,ioos:station:NOAA.NERRS:wkbfrwq:1,2015-09-11T21:45:00Z,30.4162,-87.8228,78.0,1111122 
NERRS,ioos:station:NOAA.NERRS:wkbfrwq:1,2015-09-11T23:45:00Z,30.4162,-87.8228,152.0,1111122 
NERRS,ioos:station:NOAA.NERRS:wkbfrwq:1,2015-09-12T01:45:00Z,30.4162,-87.8228,138.0,1111122 
NERRS,ioos:station:NOAA.NERRS:wkbfrwq:1,2015-09-12T02:45:00Z,30.4162,-87.8228,35.0,1111122 
NERRS,ioos:station:NOAA.NERRS:wkbfrwq:1,2015-09-12T04:45:00Z,30.4162,-87.8228,20.0,1111122 
NERRS,ioos:station:NOAA.NERRS:wkbfrwq:1,2015-09-12T07:45:00Z,30.4162,-87.8228,15.0,1111122 
NERRS,ioos:station:NOAA.NERRS:wkbfrwq:1,2015-09-12T08:45:00Z,30.4162,-87.8228,21.0,1111122 
NERRS,ioos:station:NOAA.NERRS:wkbfrwq:1,2015-09-12T09:45:00Z,30.4162,-87.8228,25.0,1111122 
NERRS,ioos:station:NOAA.NERRS:wkbfrwq:1,2015-09-12T10:45:00Z,30.4162,-87.8228,38.0,1111122 
NERRS,ioos:station:NOAA.NERRS:wkbfrwq:1,2015-09-12T11:45:00Z,30.4162,-87.8228,14.0,1111122 
NERRS,ioos:station:NOAA.NERRS:wkbfrwq:1,2015-09-12T12:45:00Z,30.4162,-87.8228,17.0,1111122 
NERRS,ioos:station:NOAA.NERRS:wkbfrwq:1,2015-09-12T13:45:00Z,30.4162,-87.8228,14.0,1111122 
NERRS,ioos:station:NOAA.NERRS:wkbfrwq:1,2015-09-12T14:45:00Z,30.4162,-87.8228,18.0,1111122 
NERRS,ioos:station:NOAA.NERRS:wkbfrwq:1,2015-09-12T15:45:00Z,30.4162,-87.8228,18.0,1111122 
NERRS,ioos:station:NOAA.NERRS:wkbfrwq:1,2015-09-12T16:45:00Z,30.4162,-87.8228,18.0,1111122 
NERRS,ioos:station:NOAA.NERRS:wkbfrwq:1,2015-09-12T17:45:00Z,30.4162,-87.8228,21.0,1111122 
NERRS,ioos:station:NOAA.NERRS:wkbfrwq:1,2015-09-12T18:45:00Z,30.4162,-87.8228,20.0,1111122 
NERRS,ioos:station:NOAA.NERRS:wkbfrwq:1,2015-09-12T19:45:00Z,30.4162,-87.8228,17.0,1111122 
NERRS,ioos:station:NOAA.NERRS:wkbfrwq:1,2015-09-12T20:45:00Z,30.4162,-87.8228,20.0,1111122 
NERRS,ioos:station:NOAA.NERRS:wkbfrwq:1,2015-09-12T22:45:00Z,30.4162,-87.8228,12.0,1111122 
NERRS,ioos:station:NOAA.NERRS:wkbfrwq:1,2015-09-12T23:45:00Z,30.4162,-87.8228,17.0,1111122 
NERRS,ioos:station:NOAA.NERRS:wkbfrwq:1,2015-09-13T00:45:00Z,30.4162,-87.8228,20.0,1111122 
NERRS,ioos:station:NOAA.NERRS:wkbfrwq:1,2015-09-13T01:45:00Z,30.4162,-87.8228,18.0,1111122 
NERRS,ioos:station:NOAA.NERRS:wkbfrwq:1,2015-09-13T02:45:00Z,30.4162,-87.8228,17.0,1111122 
NERRS,ioos:station:NOAA.NERRS:wkbfrwq:1,2015-09-13T03:45:00Z,30.4162,-87.8228,19.0,1111122 
NERRS,ioos:station:NOAA.NERRS:wkbfrwq:1,2015-09-13T05:45:00Z,30.4162,-87.8228,15.0,1111122 
NERRS,ioos:station:NOAA.NERRS:wkbfrwq:1,2015-09-13T07:45:00Z,30.4162,-87.8228,14.0,1111122 
NERRS,ioos:station:NOAA.NERRS:wkbfrwq:1,2015-09-13T08:45:00Z,30.4162,-87.8228,11.0,1111122 